Wind_Speed
22 20 19 16 14 14 14 13 12 12 15 16 21 18 18 18 23 27 32 35 35 38 40 43 46 49 53 55 58 61 64 66 68 68 72 75 76 79 81 81 80 78 80 83
14 12 10 9 8 8 7 10 8 12 15 19 20 24 25 28 30 33 34 38 42 46 47 50 55 59 61 59 61 64 67 68 70 74 78 80 83 84 81 79 79 83 87 91
9 6 4 4 4 6 9 11 15 18 20 23 24 25 27 32 35 38 42 45 48 52 56 60 61 64 65 68 71 71 73 76 78 78 81 84 84 84 85 83 87 94 92 99
2 4 7 9 11 15 18 21 24 26 30 33 36 37 39 43 46 49 52 54 57 62 64 66 69 71 73 75 75 77 81 80 81 83 85 86 87 86 86 92 98 98 99 107
10 11 15 20 21 24 26 28 31 34 36 39 42 44 42 46 48 51 53 55 57 59 62 67 69 72 75 77 80 84 81 82 89 89 91 92 92 90 95 98 100 102 109 113
22 21 23 28 29 32 34 38 40 41 42 43 44 51 55 56 55 54 58 61 63 65 66 70 72 74 78 84 85 86 92 94 95 95 99 94 93 96 99 103 107 109 108 108
26 28 32 35 36 37 38 43 50 52 54 55 55 57 63 64 65 67 68 71 73 73 74 75 78 83 87 90 91 93 96 98 99 101 101 95 97 101 105 109 109 109 107 106
35 36 39 42 45 46 48 52 54 57 61 66 65 66 70 68 69 73 75 78 81 80 81 84 86 89 91 93 94 97 99 99 100 99 98 98 100 101 101 104 104 103 101 101
47 48 48 51 53 56 58 60 63 63 63 65 68 72 75 72 74 78 83 85 86 88 88 92 94 97 96 99 101 104 103 105 106 105 105 105 104 105 105 107 104 101 98 96
53 56 55 58 61 65 67 68 70 69 67 69 73 75 77 82 89 91 91 92 94 94 96 97 99 102 105 108 107 104 104 109 111 109 108 109 108 106 104 107 102 97 94 92
61 67 66 68 70 72 72 72 68 68 71 75 81 88 90 94 96 96 97 100 102 102 102 102 105 109 113 116 114 112 109 108 109 104 105 105 103 103 103 102 97 94 93 90
71 76 74 72 72 70 70 73 78 85 86 91 93 95 96 98 101 102 104 104 105 106 109 109 111 114 117 119 115 113 110 105 104 100 99 97 94 95 94 93 92 89 88 86
77 78 76 77 81 83 83 85 88 93 95 96 96 96 99 101 103 105 108 111 113 113 115 117 113 113 117 116 115 113 110 98 92 94 93 91 86 86 88 87 85 83 82 79
84 84 83 85 86 87 88 90 92 94 96 98 102 103 104 106 110 113 116 120 120 120 122 123 120 117 112 107 107 107 100 93 89 87 87 85 83 83 81 81 80 77 76 72
89 87 88 90 91 94 96 99 102 104 106 109 111 114 117 119 121 121 124 124 122 123 124 117 106 105 104 102 97 91 85 84 84 82 84 84 80 78 75 74 74 72 70 66
94 96 97 97 99 101 103 104 105 109 113 117 120 121 122 126 128 129 130 128 124 125 119 110 99 98 94 92 87 82 80 80 79 78 79 79 76 73 71 70 68 67 65 62
98 100 101 102 104 106 111 114 116 119 122 125 128 132 134 134 132 128 126 125 120 118 110 98 95 90 89 86 82 80 76 76 76 76 75 74 72 70 68 66 65 63 61 58
105 107 109 112 115 117 121 123 124 127 129 131 132 132 134 130 125 122 120 117 117 109 107 99 91 87 85 83 81 78 75 73 71 70 70 70 69 67 64 62 60 60 58 55
109 109 110 113 116 118 122 125 128 130 130 129 127 126 126 124 123 119 112 109 106 93 93 91 90 86 81 78 75 74 72 70 69 68 67 67 66 63 60 58 57 56 55 53
116 115 118 120 121 124 127 129 129 127 130 131 128 126 124 121 117 113 106 101 105 94 85 86 85 81 78 75 72 70 67 66 65 64 64 63 61 58 54 53 52 51 50 48
114 116 118 120 118 121 125 126 126 126 123 119 119 119 117 112 112 107 100 96 96 93 86 83 79 75 71 69 69 68 66 65 63 61 59 57 53 50 48 46 46 45 45 45
106 108 110 113 115 118 119 119 120 121 118 113 112 111 108 103 103 99 94 88 85 84 82 80 76 71 69 68 66 62 60 59 55 53 49 47 46 44 44 43 42 42 42 42
107 109 110 112 113 114 112 113 116 111 111 107 104 104 102 99 93 84 79 88 84 81 79 77 73 69 66 63 58 55 51 49 47 44 43 42 41 41 40 39 38 38 37 34
106 108 110 111 111 110 108 102 101 101 103 102 99 96 95 91 79 87 80 76 79 78 74 72 68 63 59 53 50 48 45 43 41 40 38 38 36 36 34 34 32 31 30 32
105 106 106 107 105 103 100 96 93 92 93 93 92 92 91 85 75 78 78 74 73 70 68 64 58 53 51 47 44 43 41 40 38 37 35 33 32 31 29 28 29 30 30 29
102 103 103 101 102 99 93 90 87 86 89 89 90 89 84 78 77 69 67 68 67 64 59 56 52 49 46 42 40 39 36 34 33 32 31 29 28 27 27 28 27 26 25 24
98 100 102 97 97 96 87 83 83 84 88 87 81 76 69 72 68 62 62 62 59 55 51 49 45 42 40 38 35 33 31 31 30 29 28 26 26 26 25 24 24 23 21 21
Wind_Direction
112 117 125 131 143 165 184 199 220 241 241 256 260 265 262 267 282 288 288 290 295 299 303 305 306 303 304 303 304 305 306 307 309 306 304 302 301 304 305 306 308 307 307 308
122 127 139 156 174 200 230 254 271 270 280 272 274 279 283 290 299 302 299 296 296 301 301 302 301 302 301 300 300 301 300 299 300 300 301 300 301 302 304 304 304 306 307 308
88 104 127 155 204 226 287 289 286 294 292 293 287 290 296 288 292 295 298 295 293 294 296 297 297 299 301 301 300 299 299 300 300 301 301 300 301 301 302 301 304 307 304 305
317 318 310 296 280 278 287 284 284 286 288 294 295 297 296 294 293 295 297 297 297 296 296 296 296 296 298 299 298 298 298 298 299 300 300 300 302 302 302 303 303 302 300 303
255 261 273 282 287 288 287 284 282 282 286 287 287 287 292 289 291 293 295 293 293 295 295 295 295 296 296 297 297 298 297 298 302 303 304 303 303 303 301 300 299 300 301 302
275 275 276 274 277 278 280 277 277 278 282 289 292 294 292 292 291 292 291 294 296 295 292 291 290 292 297 299 299 300 302 302 302 303 305 305 301 299 300 299 299 300 303 304
286 283 280 284 287 287 288 287 284 280 277 281 288 293 299 298 290 289 293 300 300 300 300 297 297 300 302 300 300 300 303 303 304 304 304 304 300 299 298 300 302 304 303 302
285 289 287 290 290 290 291 291 291 288 285 283 286 290 295 295 291 294 295 298 300 300 298 298 299 301 302 301 302 305 306 304 305 303 303 304 304 304 305 306 306 304 302 300
277 279 281 283 283 284 287 290 290 288 285 283 285 287 292 293 295 296 298 299 301 302 302 298 296 297 299 301 303 305 306 303 306 304 304 304 304 305 305 305 304 303 300 299
276 277 279 282 281 281 284 286 286 285 285 283 286 291 290 292 296 296 296 297 299 299 298 299 297 297 299 301 304 307 307 307 305 305 303 303 303 304 305 304 302 300 299 300
280 282 284 282 282 287 287 285 281 283 283 285 288 292 293 293 294 296 297 298 299 299 299 298 295 297 301 302 305 309 309 306 305 303 302 302 302 303 302 301 300 299 298 299
281 282 282 283 282 281 279 279 280 285 287 289 292 293 295 295 295 295 295 295 295 296 296 295 297 298 300 302 304 307 307 304 302 301 299 298 299 299 296 297 296 297 297 298
278 281 281 280 282 285 287 287 287 288 289 291 291 291 292 293 293 294 294 294 296 297 296 298 301 303 304 305 305 306 305 301 299 298 297 295 295 294 294 293 294 295 296 297
279 279 282 283 284 285 287 287 287 287 287 288 290 292 292 293 293 295 296 297 298 300 301 303 305 305 305 305 304 303 300 299 297 295 293 291 292 292 293 292 292 292 293 295
280 282 283 282 283 284 285 286 286 288 290 291 292 293 294 295 296 297 298 300 302 303 303 303 306 306 305 304 303 300 296 295 293 293 292 291 291 291 291 290 289 290 291 293
278 280 281 282 283 285 286 287 288 288 290 292 294 295 295 296 297 299 300 301 303 302 304 306 307 305 305 302 300 296 294 293 291 290 290 290 290 289 289 289 288 288 290 291
276 278 279 280 282 283 284 285 287 288 289 290 290 291 293 295 298 300 301 302 305 305 307 306 306 306 304 301 299 296 293 291 290 289 288 287 287 287 287 287 287 287 288 290
278 279 280 282 283 284 285 285 287 288 289 290 291 292 294 297 299 300 303 305 306 306 307 307 306 304 302 300 298 296 294 292 289 287 286 286 287 286 286 286 287 288 288 289
280 280 281 282 283 284 286 287 287 289 290 292 294 295 297 300 301 303 304 305 304 307 305 305 304 301 300 299 297 294 292 290 288 288 287 287 286 286 287 286 286 286 285 287
278 279 280 282 283 283 285 286 288 290 291 293 296 297 297 299 300 301 304 305 303 305 303 302 300 300 299 297 296 295 293 290 287 286 285 285 285 287 286 285 284 284 285 286
279 280 281 281 281 283 285 287 288 289 292 295 296 297 297 298 299 302 305 305 301 300 301 299 299 299 299 298 297 295 292 289 288 288 286 286 287 286 284 283 282 283 283 283
280 279 279 281 283 284 286 288 290 292 295 295 294 295 298 299 299 302 303 300 299 299 299 300 300 300 300 298 296 293 291 289 288 288 289 288 287 285 283 282 281 281 282 282
281 283 284 284 285 286 288 290 291 294 294 295 297 296 298 298 299 299 299 299 299 299 299 298 298 300 299 296 293 292 291 290 290 290 289 287 286 285 284 284 283 282 280 278
284 283 284 285 287 288 289 290 291 293 295 295 296 296 296 297 302 301 300 299 296 297 298 299 301 300 297 293 291 292 292 291 289 288 287 286 285 285 283 281 280 280 277 272
285 286 287 288 290 290 292 293 293 293 294 295 298 298 299 302 302 299 299 297 295 296 298 299 299 298 295 294 293 292 290 288 287 286 284 281 281 281 282 283 279 276 277 277
287 288 289 292 292 292 293 295 297 297 298 299 299 300 302 301 298 298 295 294 294 296 297 296 297 294 294 294 292 289 288 287 286 284 283 283 282 281 280 279 281 282 277 278
289 290 289 291 294 297 300 300 301 301 299 298 299 299 300 296 297 297 295 294 294 294 294 294 293 293 292 293 290 288 287 286 284 283 282 280 278 279 283 286 282 280 281 281
Height
10635 10637 10640 10643 10646 10648 10651 10653 10654 10656 10657 10657 10657 10658 10656 10656 10653 10650 10647 10642 10639 10636 10631 10627 10622 10616 10609 10604 10599 10593 10586 10580 10574 10566 10559 10551 10543 10535 10527 10518 10510 10503 10494 10486
10639 10641 10644 10646 10648 10650 10652 10653 10653 10654 10654 10653 10652 10651 10650 10648 10645 10642 10638 10633 10628 10624 10620 10615 10609 10603 10596 10591 10586 10580 10572 10565 10558 10551 10543 10533 10525 10517 10508 10500 10492 10483 10473 10464
10643 10644 10646 10647 10648 10648 10649 10649 10648 10648 10648 10646 10645 10643 10642 10638 10635 10631 10627 10622 10616 10611 10607 10602 10596 10590 10582 10577 10569 10563 10555 10547 10540 10534 10525 10515 10506 10497 10489 10481 10471 10460 10450 10439
10645 10645 10645 10645 10644 10644 10643 10642 10641 10640 10638 10636 10633 10631 10631 10626 10622 10618 10614 10609 10605 10599 10591 10586 10580 10573 10567 10560 10553 10545 10537 10529 10522 10514 10505 10495 10485 10476 10467 10459 10448 10437 10427 10416
10642 10642 10642 10639 10640 10639 10638 10635 10634 10631 10629 10626 10623 10619 10620 10615 10610 10605 10600 10594 10588 10583 10577 10569 10562 10555 10549 10541 10534 10527 10519 10511 10501 10492 10483 10472 10463 10454 10445 10436 10425 10415 10404 10391
10638 10637 10637 10634 10633 10631 10630 10626 10622 10620 10617 10613 10611 10605 10602 10599 10595 10591 10586 10581 10573 10567 10561 10556 10547 10538 10530 10523 10514 10505 10497 10487 10478 10470 10461 10450 10440 10431 10421 10410 10401 10389 10377 10364
10631 10630 10628 10624 10623 10621 10619 10616 10611 10607 10604 10600 10597 10592 10587 10582 10578 10572 10566 10560 10553 10546 10539 10533 10526 10517 10507 10501 10493 10485 10475 10465 10455 10445 10436 10426 10418 10407 10397 10384 10374 10364 10351 10337
10619 10619 10616 10613 10610 10607 10606 10602 10598 10593 10589 10585 10581 10576 10571 10565 10559 10553 10547 10540 10533 10525 10516 10509 10504 10498 10488 10477 10471 10464 10454 10443 10432 10421 10409 10400 10390 10379 10369 10355 10346 10334 10321 10309
10606 10605 10603 10602 10596 10592 10589 10586 10582 10577 10573 10567 10563 10558 10553 10548 10543 10537 10529 10520 10511 10504 10497 10486 10478 10469 10464 10454 10446 10440 10428 10416 10403 10394 10381 10370 10360 10349 10342 10325 10316 10306 10294 10283
10594 10590 10592 10587 10582 10577 10575 10569 10563 10559 10556 10551 10546 10540 10534 10528 10522 10514 10505 10499 10492 10484 10476 10467 10452 10441 10430 10424 10418 10413 10402 10388 10373 10362 10352 10339 10330 10317 10309 10297 10287 10278 10268 10260
10580 10573 10574 10569 10564 10560 10555 10550 10545 10540 10536 10532 10527 10520 10514 10505 10497 10489 10481 10472 10464 10457 10451 10441 10427 10416 10404 10391 10383 10380 10372 10360 10345 10333 10323 10313 10300 10290 10278 10269 10261 10252 10244 10236
10558 10551 10551 10547 10542 10540 10535 10530 10526 10521 10515 10509 10503 10494 10488 10480 10471 10463 10455 10445 10438 10430 10422 10413 10401 10391 10378 10364 10354 10346 10340 10328 10314 10304 10293 10283 10274 10266 10251 10242 10236 10229 10221 10214
10536 10532 10530 10529 10525 10519 10514 10508 10503 10497 10490 10482 10475 10470 10462 10455 10446 10437 10427 10418 10410 10404 10394 10383 10374 10364 10347 10336 10325 10314 10304 10296 10284 10269 10261 10252 10244 10238 10229 10218 10213 10206 10199 10193
10512 10511 10508 10503 10500 10495 10490 10484 10477 10469 10463 10456 10449 10442 10435 10427 10418 10408 10396 10385 10378 10370 10358 10345 10338 10328 10311 10303 10293 10283 10273 10262 10250 10240 10231 10225 10218 10210 10205 10196 10189 10185 10179 10174
10489 10488 10483 10478 10474 10469 10463 10457 10449 10441 10435 10426 10419 10412 10404 10396 10385 10374 10362 10352 10346 10335 10320 10313 10307 10295 10280 10269 10261 10254 10244 10232 10220 10211 10202 10196 10192 10185 10180 10175 10168 10164 10159 10154
10467 10462 10457 10453 10448 10441 10433 10427 10420 10411 10403 10394 10387 10377 10367 10357 10349 10341 10331 10320 10313 10303 10286 10279 10275 10259 10251 10238 10232 10225 10214 10202 10192 10187 10177 10171 10167 10162 10158 10154 10149 10144 10139 10136
10441 10436 10431 10426 10420 10412 10404 10397 10390 10383 10374 10364 10355 10345 10336 10327 10320 10312 10302 10291 10278 10264 10254 10245 10238 10227 10216 10204 10198 10193 10187 10178 10168 10161 10155 10148 10145 10140 10137 10133 10128 10125 10121 10118
10415 10410 10404 10397 10391 10383 10373 10366 10358 10350 10341 10330 10321 10314 10304 10294 10287 10280 10271 10261 10246 10236 10222 10212 10202 10197 10189 10179 10172 10165 10158 10150 10145 10139 10133 10127 10124 10120 10117 10114 10110 10107 10103 10100
10384 10379 10372 10364 10358 10352 10343 10332 10322 10316 10305 10295 10290 10283 10274 10265 10254 10248 10241 10233 10216 10213 10203 10186 10176 10168 10164 10154 10147 10138 10133 10128 10122 10116 10111 10108 10104 10101 10098 10096 10093 10089 10085 10082
10353 10346 10340 10336 10327 10317 10309 10298 10292 10287 10276 10264 10261 10254 10246 10237 10225 10217 10213 10205 10181 10180 10175 10163 10152 10145 10139 10130 10122 10114 10111 10105 10099 10094 10090 10087 10084 10081 10080 10078 10075 10072 10069 10067
10322 10318 10312 10301 10292 10284 10277 10272 10262 10254 10248 10243 10232 10223 10213 10208 10196 10187 10184 10178 10161 10149 10144 10135 10128 10122 10114 10108 10100 10093 10087 10081 10077 10074 10070 10067 10066 10063 10061 10059 10058 10057 10054 10051
10291 10283 10275 10268 10263 10258 10249 10241 10229 10223 10219 10214 10205 10193 10183 10179 10171 10166 10156 10145 10140 10129 10120 10110 10105 10099 10093 10086 10079 10073 10067 10062 10058 10055 10052 10049 10047 10047 10045 10044 10043 10041 10038 10036
10254 10251 10246 10236 10230 10226 10226 10216 10200 10198 10189 10182 10175 10165 10157 10151 10147 10140 10141 10117 10107 10101 10096 10088 10083 10078 10072 10065 10058 10053 10050 10045 10042 10039 10036 10034 10033 10032 10031 10030 10029 10027 10025 10024
10226 10218 10211 10204 10199 10195 10190 10192 10182 10176 10160 10152 10147 10138 10128 10125 10127 10103 10104 10100 10085 10076 10072 10068 10063 10057 10051 10046 10041 10037 10034 10030 10028 10026 10024 10022 10021 10020 10019 10018 10016 10015 10014 10012
10193 10188 10180 10174 10167 10162 10158 10157 10156 10150 10137 10127 10118 10106 10099 10093 10097 10092 10076 10071 10063 10058 10052 10047 10044 10038 10033 10030 10026 10022 10020 10017 10015 10014 10013 10012 10011 10009 10008 10006 10004 10004 10003 10003
10164 10156 10149 10145 10133 10129 10133 10130 10126 10119 10106 10099 10091 10082 10077 10071 10065 10065 10057 10049 10043 10038 10035 10030 10026 10021 10018 10016 10012 10010 10008 10006 10004 10003 10002 10002 10000 9998 9996 9995 9995 9996 9995 9995
10138 10127 10116 10119 10109 10099 10100 10097 10093 10088 10075 10067 10070 10061 10055 10046 10042 10040 10034 10029 10025 10021 10018 10014 10010 10007 10005 10003 10001 9998 9996 9995 9994 9993 9992 9991 9990 9989 9989 9988 9988 9988 9988 9988